Weather observations for the past three days for
Eugene, Mahlon Sweet Field
Metric (Imperial)
Date Time (pdt) Wind (kph) Vis. (km) Weather Sky Cond. Temperature (ºC) Relative Humidity Wind Chill (°C) Heat Index (°C) Pressure Precipitation (cm)
Air Dwpt 6 hour altimeter (cm) sea level (mb) 1 hr 3 hr 6 hr
Max. Min.
05 17:54 NE 7 16.09 A Few Clouds FEW030 18.3 12.8 70% 76.15 1015.0
05 16:54 NE 7 16.09 A Few Clouds FEW030 19.4 12.2 19.4 14.4 63% 76.15 1015.1
05 15:54 Vrbl 6 16.09 Partly Cloudy SCT027 18.3 11.7 66% 76.17 1015.6
05 14:54 E 6 16.09 Mostly Cloudy BKN023 16.7 11.1 70% 76.25 1016.4
05 13:54 NW 9 16.09 Overcast OVC023 16.7 10.6 67% 76.25 1016.5
05 12:54 Calm 16.09 Overcast OVC021 15.6 10 70% 76.28 1016.7
05 11:54 E 9 16.09 Overcast OVC021 15 10.6 75% 76.25 1016.7
05 10:54 Calm 16.09 Overcast OVC021 14.4 9.4 14.4 12.2 72% 76.25 1016.5
05 09:54 Calm 16.09 Overcast OVC019 13.9 9.4 74% 76.23 1016.3
05 08:54 S 6 16.09 Overcast OVC017 13.3 9.4 77% 76.25 1016.4
05 07:54 Calm 16.09 Overcast OVC019 12.8 8.9 77% 76.23 1016.2
05 06:54 Calm 16.09 Overcast OVC019 12.2 8.9 80% 76.2 1015.9
05 05:54 Vrbl 6 16.09 Overcast OVC018 12.2 8.9 80% 76.17 1015.6
05 04:54 W 6 16.09 Overcast OVC016 12.2 8.9 12.8 12.2 80% 76.15 1015.2
05 03:54 SW 7 16.09 Overcast OVC017 12.2 9.4 83% 76.15 1015.2
05 02:54 SW 15 16.09 Overcast OVC015 12.2 9.4 83% 76.12 1014.9
05 01:54 SW 13 16.09 Overcast OVC015 12.2 9.4 83% 76.12 1014.8
05 00:54 SW 13 16.09 Overcast OVC014 12.8 9.4 80% 76.12 1015.0
04 23:54 SW 9 16.09 Overcast OVC014 12.8 9.4 80% 76.12 1014.9
04 22:54 SW 9 16.09 Mostly Cloudy BKN015 BKN031 12.8 9.4 18.9 12.2 80% 76.12 1014.7
04 21:54 SW 17 16.09 Partly Cloudy SCT031 12.8 9.4 80% 76.1 1014.4
04 20:54 SW 22 16.09 Mostly Cloudy BKN032 13.3 10 81% 76.05 1013.8
04 19:54 SW 24 16.09 Partly Cloudy SCT033 SCT250 14.4 10 75% 75.97 1012.9
04 18:54 SW 24 16.09 A Few Clouds FEW050 FEW250 16.1 10.6 70% 75.95 1012.5
04 17:54 SW 24 16.09 A Few Clouds FEW050 FEW250 18.3 11.1 63% 75.95 1012.6
04 16:54 S 24 16.09 A Few Clouds FEW040 FEW200 18.3 11.7 19.4 14.4 66% 75.95 1012.6
04 15:54 S 24 16.09 Partly Cloudy FEW030 SCT250 18.3 11.7 66% 76 1013.0
04 14:54 SW 22 16.09 Partly Cloudy SCT027 SCT250 18.9 11.7 63% 76.05 1013.7
04 13:54 S 13 G 31 16.09 Mostly Cloudy BKN025 18.3 11.7 66% 76.05 1013.9
04 12:54 S 7 16.09 Mostly Cloudy BKN022 16.1 11.1 72% 76.07 1014.3
04 11:54 S 11 16.09 Overcast OVC019 15 10.6 75% 76.1 1014.6
04 10:54 S 11 16.09 Overcast OVC018 14.4 10 14.4 12.2 75% 76.12 1014.8
04 09:54 SW 13 16.09 Overcast OVC017 13.9 9.4 74% 76.12 1014.7
04 08:54 S 13 16.09 Overcast OVC016 13.3 10 81% 76.1 1014.4
04 07:54 SW 11 16.09 Overcast OVC016 12.8 9.4 80% 76.07 1014.1
04 06:54 S 11 16.09 Overcast OVC015 12.2 9.4 83% 76.05 1013.6
04 05:54 SW 17 16.09 Overcast OVC014 12.2 9.4 83% 76 1013.1
04 04:54 S 19 16.09 Overcast OVC014 12.2 9.4 13.3 11.7 83% 76 1013.0
04 03:54 S 20 16.09 Overcast OVC013 12.2 9.4 83% 75.97 1012.8
04 02:54 S 24 16.09 Overcast OVC012 12.2 9.4 83% 75.95 1012.5
04 01:54 S 19 16.09 Mostly Cloudy BKN012 12.2 10 87% 75.92 1012.0
04 00:54 S 24 16.09 Fair CLR 12.2 10 87% 75.87 1011.4
03 23:54 S 26 16.09 Partly Cloudy SCT120 12.8 10 83% 75.84 1010.9
03 22:54 S 22 16.09 Partly Cloudy SCT120 13.3 10 28.3 13.3 81% 75.79 1010.2
03 21:54 SW 24 16.09 A Few Clouds FEW120 FEW250 16.7 11.1 70% 75.69 1009.0
03 20:54 SW 19 16.09 Partly Cloudy FEW060 FEW120 SCT250 21.1 13.3 61% 75.62 1007.9
03 19:54 SW 9 16.09 Partly Cloudy FEW060 SCT120 SCT250 24.4 17.2 64% 25 75.57 1007.1
03 18:54 N 7 16.09 Partly Cloudy FEW060 SCT120 SCT250 26.1 18.3 62% 27 75.54 1007.1
03 17:54 N 9 16.09 Mostly Cloudy FEW060 SCT120 BKN250 26.7 17.2 56% 27 75.57 1007.2
03 16:54 N 15 16.09 Partly Cloudy SCT060 SCT200 27.8 15.6 27.8 18.9 47% 28 75.57 1007.3
03 15:54 N 17 16.09 Partly Cloudy FEW070 SCT200 27.2 16.7 53% 28 75.62 1007.9
03 14:54 N 15 16.09 Partly Cloudy FEW070 SCT200 27.8 13.9 43% 28 75.69 1008.9
03 13:54 N 13 16.09 A Few Clouds FEW070 FEW150 25.6 13.9 48% 26 75.72 1009.4
03 12:54 N 9 16.09 A Few Clouds FEW070 FEW150 23.3 14.4 57% 75.79 1010.2
03 11:54 NW 11 16.09 A Few Clouds FEW150 21.7 13.3 59% 75.84 1011.0
03 10:54 Vrbl 7 16.09 Fair CLR 18.9 13.3 18.9 6.7 70% 75.87 1011.6
03 09:54 NW 11 16.09 A Few Clouds FEW150 16.1 13.3 84% 75.9 1011.7
03 08:54 Calm 16.09 A Few Clouds FEW150 13.9 12.8 93% 75.92 1012.0
03 07:54 Calm 1.21 Fog/Mist BKN002 12.2 11.7 97% 75.92 1012.0
03 06:54 S 6 0.40 Fog VV001 9.4 9.4 100% 75.9 1011.8
03 05:52 S 6 0.80 Fog VV001 7.2 7.2 100% 75.87 1011.5
03 04:54 Calm 14.48 Overcast OVC002 8.3 7.8 12.8 6.7 97% 75.9 1011.8
03 03:54 Calm 9.66 Fog/Mist CLR 7.8 7.8 100% 75.9 1011.9
03 02:54 Calm 9.66 Fog/Mist CLR 9.4 9.4 100% 75.9 1011.8
03 01:54 Calm 14.48 Fair CLR 10 10 100% 75.9 1011.9
03 00:54 Calm 12.87 Fair CLR 11.1 10.6 97% 75.92 1012.0
02 23:54 Calm 16.09 Fair CLR 11.7 10.6 93% 75.92 1012.2
02 22:54 NW 15 16.09 Mostly Cloudy BKN220 12.2 11.1 19.4 12.2 93% 75.9 1011.9
02 21:54 Calm 16.09 Mostly Cloudy BKN220 12.2 11.1 93% 75.95 1012.5
02 20:54 N 6 16.09 Mostly Cloudy SCT110 BKN220 15.6 12.2 80% 75.87 1011.5
02 19:54 N 11 16.09 Mostly Cloudy FEW040 SCT110 BKN240 15.6 12.8 84% 75.87 1011.5
02 18:54 NW 13 16.09 Mostly Cloudy FEW110 BKN240 18.9 12.8 68% 75.9 1011.6
Date Time (pdt) Wind (kph) Vis. (km) Weather Sky Cond. Air Dwpt Max. Min. Relative Humidity Wind Chill (°C) Heat Index (°C) altimeter (cm) sea level (mb) 1 hr 3 hr 6 hr
6 hour
Temperature (ºC) Pressure Precipitation (cm)